| time (UTC) | temp F | wind direction | speed MPH | gust MPH | rain 1hr in | rain 24hr in | rain mn in | humidity % | barometer mb |
| 20260509121520 | 53 | 260 | 2.0 | 3.0 | 0.00 | 0.00 | 0.00 | 74 | 1007.9 |
| 20260509120025 | 53 | 263 | 2.0 | 5.0 | 0.00 | 0.00 | 0.00 | 73 | 1007.7 |
| 20260509114518 | 52 | 261 | 2.0 | 5.0 | 0.00 | 0.00 | 0.00 | 73 | 1007.5 |
| 20260509113016 | 52 | 254 | 4.0 | 7.0 | 0.00 | 0.00 | 0.00 | 74 | 1007.4 |
| 20260509111516 | 51 | 257 | 3.0 | 5.0 | 0.00 | 0.00 | 0.00 | 75 | 1007.5 |
| 20260509110015 | 52 | 253 | 3.0 | 6.0 | 0.00 | 0.00 | 0.00 | 72 | 1007.5 |
| 20260509104515 | 50 | 273 | 3.0 | 6.0 | 0.00 | 0.00 | 0.00 | 75 | 1007.4 |
| 20260509103013 | 50 | 254 | 4.0 | 5.0 | 0.00 | 0.00 | 0.00 | 74 | 1007.5 |
| 20260509101513 | 50 | 254 | 4.0 | 7.0 | 0.00 | 0.00 | 0.00 | 74 | 1007.5 |
| 20260509100012 | 50 | 247 | 6.0 | 7.0 | 0.00 | 0.00 | 0.00 | 72 | 1007.4 |
| 20260509094512 | 51 | 251 | 6.0 | 9.0 | 0.00 | 0.00 | 0.00 | 72 | 1007.6 |
| 20260509093011 | 50 | 247 | 5.0 | 7.0 | 0.00 | 0.00 | 0.00 | 73 | 1007.5 |
| 20260509091510 | 50 | 259 | 5.0 | 7.0 | 0.00 | 0.00 | 0.00 | 72 | 1007.7 |
| 20260509090010 | 50 | 248 | 6.0 | 7.0 | 0.00 | 0.00 | 0.00 | 72 | 1007.7 |
| 20260509084507 | 50 | 250 | 2.0 | 4.0 | 0.00 | 0.00 | 0.00 | 73 | 1007.7 |
| 20260509083010 | 50 | 248 | 4.0 | 5.0 | 0.00 | 0.00 | 0.00 | 71 | 1007.8 |
| 20260509081506 | 51 | 250 | 1.0 | 6.0 | 0.00 | 0.00 | 0.00 | 71 | 1007.7 |
| 20260509074610 | 51 | 252 | 4.0 | 7.0 | 0.00 | 0.00 | 0.00 | 71 | 1007.8 |
| 20260509073056 | 52 | 250 | 5.0 | 6.0 | 0.00 | 0.00 | 0.00 | 67 | 1007.9 |
| 20260509071608 | 54 | 237 | 4.0 | 5.0 | 0.00 | 0.00 | 0.00 | 64 | 1007.8 |
| 20260509070056 | 53 | 227 | 1.0 | 4.0 | 0.00 | 0.00 | 0.00 | 65 | 1007.8 |
| 20260509064558 | 52 | 236 | 1.0 | 4.0 | 0.00 | 0.00 | 0.00 | 67 | 1007.9 |
| 20260509063051 | 53 | 245 | 4.0 | 5.0 | 0.00 | 0.00 | 0.00 | 66 | 1007.8 |
| 20260509061555 | 53 | 245 | 4.0 | 5.0 | 0.00 | 0.00 | 0.00 | 65 | 1007.8 |
| 20260509060049 | 54 | 232 | 1.0 | 3.0 | 0.00 | 0.00 | 0.00 | 64 | 1007.8 |
| 20260509054605 | 54 | 234 | 2.0 | 5.0 | 0.00 | 0.00 | 0.00 | 63 | 1007.8 |
| 20260509053051 | 53 | 242 | 1.0 | 3.0 | 0.00 | 0.00 | 0.00 | 65 | 1007.8 |
| 20260509051544 | 54 | 235 | 0.0 | 0.0 | 0.00 | 0.00 | 0.00 | 62 | 1007.8 |
| 20260509050051 | 56 | 235 | 0.0 | 2.0 | 0.00 | 0.00 | 0.00 | 60 | 1007.8 |
| 20260509044540 | 56 | 236 | 1.0 | 2.0 | 0.00 | 0.00 | 0.00 | 60 | 1007.7 |
| 20260509043049 | 56 | 234 | 2.0 | 4.0 | 0.00 | 0.00 | 0.00 | 60 | 1007.7 |
| 20260509041539 | 55 | 240 | 1.0 | 2.0 | 0.00 | 0.00 | 0.00 | 60 | 1007.7 |
| 20260509040038 | 56 | 242 | 1.0 | 2.0 | 0.00 | 0.00 | 0.00 | 58 | 1007.6 |
| 20260509034539 | 57 | 247 | 2.0 | 6.0 | 0.00 | 0.00 | 0.00 | 57 | 1007.5 |
| 20260509033037 | 56 | 246 | 4.0 | 6.0 | 0.00 | 0.00 | 0.00 | 60 | 1007.2 |
| 20260509031546 | 57 | 246 | 0.0 | 4.0 | 0.00 | 0.00 | 0.00 | 58 | 1007.1 |
| 20260509030039 | 58 | 244 | 1.0 | 4.0 | 0.00 | 0.00 | 0.00 | 55 | 1007.0 |
| 20260509024539 | 60 | 247 | 0.0 | 2.0 | 0.00 | 0.00 | 0.00 | 51 | 1006.8 |
| 20260509023037 | 61 | 244 | 1.0 | 4.0 | 0.00 | 0.00 | 0.00 | 51 | 1006.7 |
| 20260509021535 | 63 | 246 | 0.0 | 1.0 | 0.00 | 0.00 | 0.00 | 47 | 1006.6 |
| 20260509020034 | 65 | 245 | 0.0 | 2.0 | 0.00 | 0.00 | 0.00 | 46 | 1006.5 |
| 20260509014533 | 67 | 303 | 0.0 | 0.0 | 0.00 | 0.00 | 0.00 | 41 | 1006.5 |
| 20260509013040 | 69 | 303 | 0.0 | 0.0 | 0.00 | 0.00 | 0.00 | 39 | 1006.5 |
| 20260509011533 | 71 | 303 | 0.0 | 1.0 | 0.00 | 0.00 | 0.00 | 39 | 1006.4 |
| 20260509010032 | 73 | 302 | 0.0 | 2.0 | 0.00 | 0.00 | 0.00 | 37 | 1006.4 |
| 20260509004541 | 75 | 296 | 0.0 | 4.0 | 0.00 | 0.00 | 0.00 | 36 | 1006.3 |
| 20260509003032 | 75 | 315 | 0.0 | 6.0 | 0.00 | 0.00 | 0.00 | 35 | 1006.3 |
| 20260509001531 | 76 | 340 | 0.0 | 4.0 | 0.00 | 0.00 | 0.00 | 34 | 1006.3 |
| 20260509000033 | 76 | 28 | 0.0 | 5.0 | 0.00 | 0.00 | 0.00 | 34 | 1006.2 |
| 20260508234531 | 77 | 38 | 0.0 | 7.0 | 0.00 | 0.00 | 0.00 | 33 | 1006.2 |
| 20260508233029 | 77 | 5 | 2.0 | 9.0 | 0.00 | 0.00 | 0.00 | 33 | 1006.0 |
| 20260508231528 | 77 | 5 | 1.0 | 8.0 | 0.00 | 0.00 | 0.00 | 33 | 1006.0 |
| 20260508230029 | 77 | 343 | 2.0 | 7.0 | 0.00 | 0.00 | 0.00 | 32 | 1005.9 |
| 20260508224527 | 78 | 14 | 1.0 | 5.0 | 0.00 | 0.00 | 0.00 | 32 | 1005.8 |
| 20260508223034 | 78 | 15 | 1.0 | 8.0 | 0.00 | 0.00 | 0.00 | 33 | 1005.7 |
| 20260508221531 | 78 | 49 | 1.0 | 6.0 | 0.00 | 0.00 | 0.00 | 35 | 1005.6 |
| 20260508220034 | 78 | 329 | 1.0 | 8.0 | 0.00 | 0.00 | 0.00 | 32 | 1005.6 |
| 20260508214525 | 78 | 28 | 3.0 | 8.0 | 0.00 | 0.00 | 0.00 | 33 | 1005.6 |
| 20260508213030 | 78 | 82 | 3.0 | 10.0 | 0.00 | 0.00 | 0.00 | 33 | 1005.7 |
| 20260508211526 | 77 | 5 | 4.0 | 10.0 | 0.00 | 0.00 | 0.00 | 34 | 1005.8 |
| 20260508210024 | 75 | 59 | 2.0 | 7.0 | 0.00 | 0.00 | 0.00 | 34 | 1005.7 |
| 20260508204523 | 76 | 342 | 1.0 | 9.0 | 0.00 | 0.00 | 0.00 | 35 | 1005.8 |
| 20260508203022 | 77 | 196 | 1.0 | 6.0 | 0.00 | 0.00 | 0.00 | 36 | 1005.9 |
| 20260508201522 | 77 | 346 | 2.0 | 7.0 | 0.00 | 0.00 | 0.00 | 36 | 1005.9 |
| 20260508200024 | 77 | 60 | 2.0 | 8.0 | 0.00 | 0.00 | 0.00 | 37 | 1005.8 |
| 20260508194523 | 78 | 31 | 3.0 | 7.0 | 0.00 | 0.00 | 0.00 | 37 | 1005.8 |
| 20260508193020 | 77 | 334 | 2.0 | 6.0 | 0.00 | 0.00 | 0.00 | 37 | 1005.5 |
| 20260508191525 | 79 | 300 | 2.0 | 11.0 | 0.00 | 0.00 | 0.00 | 35 | 1005.7 |
| 20260508190016 | 77 | 113 | 4.0 | 8.0 | 0.00 | 0.00 | 0.00 | 38 | 1005.9 |
| 20260508184518 | 75 | 297 | 4.0 | 9.0 | 0.00 | 0.00 | 0.00 | 39 | 1005.8 |
| 20260508183013 | 76 | 280 | 2.0 | 9.0 | 0.00 | 0.00 | 0.00 | 40 | 1005.9 |
| 20260508181528 | 74 | 302 | 6.0 | 9.0 | 0.00 | 0.00 | 0.00 | 39 | 1006.1 |
| 20260508180006 | 72 | 242 | 2.0 | 6.0 | 0.00 | 0.00 | 0.00 | 41 | 1006.5 |
| 20260508174514 | 71 | 315 | 2.0 | 7.0 | 0.00 | 0.00 | 0.00 | 41 | 1006.7 |
| 20260508173004 | 72 | 288 | 2.0 | 10.0 | 0.00 | 0.00 | 0.00 | 42 | 1006.9 |
| 20260508171503 | 72 | 292 | 5.0 | 9.0 | 0.00 | 0.00 | 0.00 | 43 | 1006.8 |
| 20260508170100 | 69 | 229 | 2.0 | 8.0 | 0.00 | 0.00 | 0.00 | 48 | 1007.1 |
| 20260508164606 | 68 | 286 | 5.0 | 9.0 | 0.00 | 0.00 | 0.00 | 49 | 1006.9 |
| 20260508163055 | 67 | 250 | 2.0 | 7.0 | 0.00 | 0.00 | 0.00 | 53 | 1006.8 |
| 20260508161552 | 65 | 258 | 2.0 | 9.0 | 0.00 | 0.00 | 0.00 | 57 | 1006.5 |
| 20260508160049 | 64 | 246 | 1.0 | 8.0 | 0.00 | 0.00 | 0.00 | 58 | 1007.1 |
| 20260508154555 | 64 | 254 | 6.0 | 10.0 | 0.00 | 0.00 | 0.00 | 59 | 1006.3 |
| 20260508153047 | 64 | 173 | 3.0 | 10.0 | 0.00 | 0.00 | 0.00 | 59 | 1006.5 |
| 20260508151546 | 63 | 219 | 6.0 | 9.0 | 0.00 | 0.00 | 0.00 | 57 | 1006.7 |
| 20260508150043 | 63 | 213 | 6.0 | 9.0 | 0.00 | 0.00 | 0.00 | 59 | 1006.7 |
| 20260508144542 | 62 | 232 | 6.0 | 9.0 | 0.00 | 0.00 | 0.00 | 59 | 1006.6 |
| 20260508143039 | 61 | 209 | 5.0 | 9.0 | 0.00 | 0.00 | 0.00 | 62 | 1007.0 |
| 20260508141547 | 60 | 219 | 5.0 | 10.0 | 0.00 | 0.00 | 0.00 | 61 | 1007.2 |
| 20260508140044 | 60 | 244 | 5.0 | 8.0 | 0.00 | 0.00 | 0.00 | 61 | 1007.1 |
| 20260508134537 | 60 | 222 | 6.0 | 8.0 | 0.00 | 0.00 | 0.00 | 60 | 1007.1 |
| 20260508133036 | 59 | 224 | 4.0 | 7.0 | 0.00 | 0.00 | 0.00 | 62 | 1006.8 |
| 20260508131536 | 58 | 202 | 2.0 | 6.0 | 0.00 | 0.00 | 0.00 | 63 | 1007.2 |
| 20260508130036 | 57 | 221 | 3.0 | 5.0 | 0.00 | 0.00 | 0.00 | 65 | 1007.2 |
| 20260508124535 | 56 | 215 | 2.0 | 5.0 | 0.00 | 0.00 | 0.00 | 67 | 1007.5 |
| 20260508123034 | 56 | 245 | 2.0 | 5.0 | 0.00 | 0.00 | 0.00 | 69 | 1007.3 |